Location: Molveno
(46.1500°N, 10.9667°E)
Time: 07:56:18
(UTC+00:00)

Cosmos 923 Rocket - Pass Details

Date: 05 July 2020
Orbit: 757 x 786 km, 74.0° (Epoch: 06 August)

Event Time Altitude Azimuth Distance (km) Brightness Sun altitude
Exits shadow 21:52:21 24° 200° (SSW) 1,542 5.2 -18.3°
Maximum altitude 21:55:33 90° 161° (SSE) 777 3.9 -18.5°
Drops below altitude 10° 22:00:52 10° 22° (NNE) 2,333 7.2 -18.8°
Sets 22:03:17 0° 22° (NNE) 3,269 8.0 -19.0°
